Location: Newark
(48.2861°N, 1.9308°W)
Time: 03:08:45
(UTC+00:00)

ISS - Visible Passes

Search period start: 20 September 2019 00:00
Search period end: 30 September 2019 00:00
Orbit: 411 x 421 km, 51.6° (Epoch: 20 September)

Date Brightness Start Highest point End Pass type
(mag) Time Alt. Az. Time Alt. Az. Time Alt. Az.
20 Sep -2.7 19:22:54 10° SSW 19:25:43 26° SE 19:26:21 24° ESE visible
20 Sep -0.8 20:58:55 10° WSW 20:59:17 13° WSW 20:59:17 13° WSW visible
21 Sep -2.0 18:35:09 10° S 18:37:25 17° SE 18:39:40 10° E visible
21 Sep -3.4 20:10:25 10° WSW 20:13:09 57° SW 20:13:09 57° SW visible
22 Sep -3.7 19:22:01 10° SW 19:25:17 56° SSE 19:26:52 26° E visible
22 Sep -1.0 20:58:50 10° W 20:59:46 17° W 20:59:46 17° W visible
23 Sep -3.1 18:33:45 10° SW 18:36:51 37° SE 18:39:57 10° ENE visible
23 Sep -3.3 20:10:13 10° W 20:13:20 59° NNW 20:13:20 59° NNW visible
24 Sep -3.7 19:21:37 10° WSW 19:24:57 77° NNW 19:26:48 24° ENE visible
24 Sep -0.9 20:58:43 10° WNW 20:59:42 17° WNW 20:59:42 17° WNW visible
25 Sep -3.8 18:33:05 10° WSW 18:36:25 78° SSE 18:39:45 10° ENE visible
25 Sep -2.9 20:10:05 10° W 20:13:04 45° NNW 20:13:04 45° NNW visible
26 Sep -3.2 19:21:26 10° W 19:24:41 51° N 19:26:24 24° ENE visible
26 Sep -0.7 20:58:29 10° WNW 20:59:17 16° WNW 20:59:17 16° WNW visible
27 Sep -3.4 18:32:46 10° W 18:36:04 62° NNW 18:39:23 10° ENE visible
27 Sep -2.6 20:09:53 10° WNW 20:12:33 41° NNW 20:12:33 41° NNW visible
28 Sep -3.0 19:21:15 10° WNW 19:24:27 44° N 19:25:48 28° NE visible
28 Sep -0.6 20:58:07 10° WNW 20:58:41 14° WNW 20:58:41 14° WNW visible
29 Sep -3.0 18:32:33 10° W 18:35:47 46° N 18:39:01 10° ENE visible
29 Sep -2.5 20:09:32 10° WNW 20:11:55 40° NW 20:11:55 40° NW visible
